Location: Marcé
(47.5801°N, 0.3280°W)
Time: 09:48:19
(UTC+01:00)

Cosmos 1125 - Visible Passes

Search period start: 30 November 2022 00:00
Search period end: 10 December 2022 00:00
Orbit: 771 x 790 km, 74.0° (Epoch: 29 November)

Date Brightness Start Highest point End Pass type
(mag) Time Alt. Az. Time Alt. Az. Time Alt. Az.
01 Dec 7.1 07:29:21 10° N 07:34:06 31° NE 07:38:48 10° ESE visible
02 Dec 7.6 06:56:23 10° N 07:00:34 23° NE 07:04:42 10° ESE visible
03 Dec 8.0 06:23:34 10° N 06:26:56 16° NE 06:30:15 10° E visible
04 Dec 8.2 05:51:11 10° NNE 05:53:13 12° NE 05:55:13 10° ENE visible
04 Dec 6.2 07:31:32 10° NNW 07:36:48 57° ENE 07:42:00 10° SE visible
05 Dec 6.8 06:58:23 10° N 07:03:23 39° ENE 07:08:19 10° SE visible
06 Dec 7.3 06:25:21 10° N 06:29:54 28° NE 06:34:24 10° ESE visible
07 Dec 7.8 05:52:26 10° N 05:56:19 20° NE 06:00:10 10° E visible
07 Dec 5.5 07:33:58 10° NNW 07:39:17 76° WSW 07:44:33 10° SSE visible
08 Dec 8.1 05:19:44 10° N 05:22:39 15° NE 05:25:33 10° ENE visible
08 Dec 5.7 07:00:40 10° NNW 07:06:00 73° ENE 07:11:16 10° SSE visible
09 Dec 8.3 04:47:49 10° NNE 04:48:54 11° NE 04:50:00 10° NE visible
09 Dec 6.3 06:27:53 12° NNW 06:32:38 49° ENE 06:37:45 10° SE visible
